El Paso, TX

2:42 PM MDT on July 27, 2016 (GMT -0600)
El Paso International

Weather History for KELP - May, 2013

Change the Weather History Date:

Thursday, May 23, 2013

  Actual Average Record
Temperature  
Mean Temperature 82 °F 76 °F  
Max Temperature 98 °F 90 °F 105 °F (2005)
Min Temperature 66 °F 62 °F 45 °F (1975)
Degree Days  
Heating Degree Days 0 0  
Month to date heating degree days 21 6  
Since 1 July heating degree days 2219 2471  
Cooling Degree Days 17 11  
Month to date cooling degree days 204 186  
Year to date cooling degree days 371 278  
Growing Degree Days 32 (Base 50)    
Moisture  
Dew Point 27 °F    
Average Humidity 25    
Maximum Humidity 44    
Minimum Humidity 6    
Precipitation  
Precipitation 0.00 in 0.02 in 0.94 in (1941)
Month to date precipitation 0.18 0.33  
Year to date precipitation 0.89 1.68  
Snow  
Snow 0.00 in - - ()
Month to date snowfall 0.0  
Since 1 July snowfall 3.1  
Snow Depth 0.00 in    
Sea Level Pressure  
Sea Level Pressure 29.69 in    
Wind  
Wind Speed 9 mph (SSE)    
Max Wind Speed 32 mph    
Max Gust Speed 40 mph    
Visibility 10 miles    
Events      
T = Trace of Precipitation, MM = Missing Value Source: NWS Daily Summary

Daily Weather History Graph

Daily Weather History Graph

Search for Another Location

Airport or City:

Trip Planner

Search our weather history database for the weather conditions in past years. The results will help you decide how hot, cold, wet, or windy it might be!

Date:

Astronomy

May. 23, 2013 Rise Set
Actual Time 6:03 AM MDT 8:01 PM MDT
Civil Twilight 5:36 AM MDT 8:28 PM MDT
Nautical Twilight 5:03 AM MDT 9:01 PM MDT
Astronomical Twilight 4:28 AM MDT 9:36 PM MDT
Moon 6:40 PM MDT (5/23) 4:44 AM MDT (5/23)
Length of Visible Light 14h 51m
Length of Day
13h 57m
Waxing Gibbous, 97% of the Moon is Illuminated
May 23
Waxing Gibbous
May 24
Full
May 31
Last Quarter
Jun 8
New
Jun 16
First Quarter

Hourly Weather History & Observations

Time (MDT) Temp. Dew Point Humidity Pressure Visibility Wind Dir Wind Speed Gust Speed Precip Events Conditions
12:51 AM 73.9 °F 19.0 °F 13% 29.64 in 10.0 mi ESE 5.8 mph - N/A   Mostly Cloudy
1:51 AM 75.0 °F 19.9 °F 13% 29.64 in 10.0 mi SSE 4.6 mph - N/A   Mostly Cloudy
2:51 AM 73.9 °F 19.0 °F 13% 29.65 in 10.0 mi Calm Calm - N/A   Mostly Cloudy
3:51 AM 75.0 °F 18.0 °F 12% 29.65 in 10.0 mi Calm Calm - N/A   Mostly Cloudy
4:51 AM 73.9 °F 18.0 °F 12% 29.66 in 10.0 mi SSE 3.5 mph - N/A   Mostly Cloudy
5:51 AM 71.1 °F 18.0 °F 13% 29.68 in 10.0 mi SE 8.1 mph - N/A   Mostly Cloudy
6:51 AM 66.9 °F 17.1 °F 15% 29.73 in 10.0 mi South 4.6 mph - N/A   Scattered Clouds
7:51 AM 69.1 °F 19.0 °F 15% 29.74 in 10.0 mi ESE 3.5 mph - N/A   Partly Cloudy
8:51 AM 77.0 °F 19.0 °F 11% 29.73 in 10.0 mi North 3.5 mph - N/A   Scattered Clouds
9:51 AM 84.9 °F 17.1 °F 8% 29.72 in 10.0 mi NNE 9.2 mph - N/A   Partly Cloudy
10:51 AM 89.1 °F 16.0 °F 7% 29.71 in 10.0 mi NNW 4.6 mph - N/A   Partly Cloudy
11:51 AM 91.0 °F 17.1 °F 7% 29.71 in 10.0 mi East 8.1 mph - N/A   Partly Cloudy
12:51 PM 93.0 °F 19.0 °F 7% 29.70 in 10.0 mi SSE 8.1 mph - N/A   Partly Cloudy
1:51 PM 96.1 °F 23.0 °F 7% 29.67 in 10.0 mi SSW 8.1 mph - N/A   Scattered Clouds
2:51 PM 93.9 °F 21.9 °F 7% 29.65 in 10.0 mi NW 4.6 mph - N/A   Mostly Cloudy
3:51 PM 96.1 °F 21.9 °F 7% 29.60 in 10.0 mi SW 5.8 mph 17.3 mph N/A   Mostly Cloudy
4:51 PM 96.1 °F 23.0 °F 7% 29.59 in 10.0 mi West 13.8 mph 19.6 mph N/A   Mostly Cloudy
5:51 PM 93.9 °F 21.0 °F 7% 29.60 in 10.0 mi SW 9.2 mph - N/A   Mostly Cloudy
6:51 PM 88.0 °F 36.0 °F 16% 29.63 in 10.0 mi SSE 20.7 mph 26.5 mph N/A   Mostly Cloudy
7:51 PM 84.9 °F 41.0 °F 21% 29.65 in 10.0 mi SSE 13.8 mph 23.0 mph N/A   Mostly Cloudy
8:51 PM 82.9 °F 42.1 °F 24% 29.67 in 10.0 mi SSE 25.3 mph 32.2 mph N/A   Mostly Cloudy
9:16 PM 78.8 °F 46.4 °F 32% 29.92 in 6.0 mi SE 19.6 mph 31.1 mph N/A   Widespread Dust
9:51 PM 75.9 °F 48.0 °F 37% 29.72 in 5.0 mi ESE 18.4 mph 34.5 mph N/A   Widespread Dust
10:51 PM 72.0 °F 48.9 °F 44% 29.79 in 10.0 mi SE 12.7 mph 17.3 mph N/A   Partly Cloudy
11:51 PM 71.1 °F 48.9 °F 45% 29.78 in 10.0 mi SSE 9.2 mph - N/A   Scattered Clouds